This demonstration page uses our WeatherBlox Daily Observations layout. Learn more.

Left ArrowRight Arrow

34.02893, -84.19858

Hourly Observations for August 29, 2015

Temp ( °F °C ) Dew Point ( °F °C ) Humidity (%) Winds ( mph kmh ) Pressure ( in mb ) Visibility ( mi km ) Precip ( " mm )
12:53 am 00:53 Clear 73 22.8 68 20 84 84 E 3 6 30.13 1020 10 16 0.00 0.00
1:53 am 01:53 Clear 73 22.8 68 20 84 84 Calm 30.13 1020 10 16 0.00 0.00
2:53 am 02:53 Clear 71 21.7 68 20 90 90 Calm 30.12 1020 10 16 0.00 0.00
3:53 am 03:53 Clear 71 21.7 68 20 90 90 Calm 30.11 1020 10 16 0.00 0.00
4:53 am 04:53 Mostly Clear 70 21.1 69 20.6 97 97 Calm 30.10 1019 9 14 0.00 0.00
5:53 am 05:53 Clear 70 21.1 69 20.6 97 97 Calm 30.11 1020 9 14 0.00 0.00
6:12 am 06:12 Mostly Cloudy 72 22 70 21 94 94 Calm 30.15 1021 9 14 0.00 0.00
6:24 am 06:24 Cloudy 72 22 70 21 94 94 Calm 30.15 1021 9 14 0.00 0.00
6:53 am 06:53 Mostly Cloudy 71 21.7 69 20.6 94 94 Calm 30.13 1020 9 14 0.00 0.00
7:32 am 07:32 Mostly Sunny 70 21 70 21 100 100 Calm 30.15 1021 7 11 0.00 0.00
7:53 am 07:53 Sunny 71 21.7 69 20.6 94 94 Calm 30.15 1021 7 11 0.00 0.00
8:53 am 08:53 Sunny 72 22.2 70 21.1 94 94 Calm 30.17 1022 9 14 0.00 0.00
9:53 am 09:53 Mostly Cloudy 75 23.9 70 21.1 84 84 VRB 3 6 30.17 1022 10 16 0.00 0.00
10:53 am 10:53 Sunny 75 23.9 69 20.6 82 82 E 3 6 30.18 1022 10 16 0.00 0.00
11:27 am 11:27 Mostly Cloudy 75 23.9 69 20.6 82 82 VRB 6 9 30.21 1023 10 16 0.00 0.00
11:53 am 11:53 Mostly Cloudy 75 23.9 69 20.6 82 82 VRB 5 7 30.19 1022 10 16 0.00 0.00
11:56 am 11:56 Mostly Cloudy 75 23.9 69 20.6 82 82 VRB 3 6 30.21 1023 10 16 0.00 0.00
12:03 pm 12:03 Mostly Cloudy 75 24 70 21 83 83 Calm 30.21 1023 10 16 0.00 0.00
12:29 pm 12:29 Mostly Cloudy 76 24.4 69 20.6 79 79 VRB 3 6 30.21 1023 10 16 0.00 0.00
12:53 pm 12:53 Mostly Cloudy 77 25 69 20.6 77 77 VRB 3 6 30.18 1022 10 16 0.00 0.00
1:53 pm 13:53 Cloudy 80 26.7 69 20.6 69 69 VRB 5 7 30.14 1021 10 16 0.00 0.00
2:00 pm 14:00 Partly Cloudy 81 27 70 21 70 70 VRB 5 7 30.12 1020 10 16 0.00 0.00
2:53 pm 14:53 Mostly Sunny 82 27.8 66 18.9 58 58 ESE 8 13 30.12 1020 10 16 0.00 0.00
3:53 pm 15:53 Sunny 81 27.2 64 17.8 57 57 VRB 7 11 30.10 1019 10 16 0.00 0.00
4:53 pm 16:53 Sunny 81 27.2 66 18.9 61 61 E 5 7 30.09 1019 10 16 0.00 0.00
5:53 pm 17:53 Sunny 80 26.7 65 18.3 60 60 VRB 6 9 30.09 1019 10 16 0.00 0.00
6:53 pm 18:53 Sunny 78 25.6 65 18.3 64 64 ESE 5 7 30.08 1019 10 16 0.00 0.00
7:53 pm 19:53 Mostly Cloudy 76 24.4 64 17.8 67 67 E 3 6 30.09 1019 10 16 0.00 0.00
8:53 pm 20:53 Mostly Cloudy 76 24.4 65 18.3 69 69 E 3 6 30.10 1019 10 16 0.00 0.00
9:53 pm 21:53 Cloudy 75 23.9 65 18.3 71 71 E 3 6 30.11 1020 10 16 0.00 0.00
10:53 pm 22:53 Cloudy 74 23.3 66 18.9 76 76 Calm 30.11 1020 10 16 0.00 0.00
11:53 pm 23:53 Cloudy 74 23.3 65 18.3 74 74 E 5 7 30.10 1019 10 16 0.00 0.00

Powered by AerisWeather